Wind_Gust
14 14 15 15 15 15 15 15 15 14 14 14 13 13 14 15 15 15 16 17 17 17 17 18 19 20 19 21 22 22 21 20 21 18 15 27 14 17 22 11 15 14 8 4 7 9 11 10 12 13 15 11 11 13 13 15 13 9 13 12 14 15 16 19 13 11 7 13 6 4 7 7 7 6 5 8 26 31 31 29 30 32 26 25 25 23 22 21
14 14 14 15 15 15 15 14 14 13 14 14 14 14 14 15 15 15 16 16 17 18 18 18 20 20 20 21 21 22 21 19 21 19 32 16 17 15 8 12 14 13 8 8 12 12 11 13 13 13 15 13 8 13 8 16 13 11 11 11 20 15 23 10 9 13 11 6 7 10 10 7 9 8 7 8 11 26 28 27 27 29 23 22 23 21 21 19
14 15 14 14 14 14 15 14 14 13 14 14 15 14 14 14 15 16 16 16 17 17 18 18 20 20 20 21 21 20 20 20 18 24 29 22 29 16 15 13 13 12 12 10 12 14 14 12 14 14 13 13 10 14 15 17 16 12 8 16 23 16 17 16 12 11 12 9 11 8 3 9 14 11 10 8 14 26 27 26 22 25 20 22 21 19 17 15
14 14 15 14 14 14 14 14 14 14 14 15 15 15 15 16 16 16 16 16 17 17 18 19 20 20 20 21 21 22 17 17 17 16 5 13 30 23 18 16 15 14 7 12 11 15 12 14 13 15 13 13 12 17 16 12 20 12 14 20 23 16 14 10 5 12 8 12 11 6 3 7 13 8 11 13 12 19 23 25 26 24 24 23 21 18 16 13
14 14 15 15 14 14 14 14 14 15 15 15 16 16 17 18 16 16 16 17 17 17 18 19 19 20 22 22 21 18 15 8 13 9 7 7 18 26 22 17 15 12 12 9 11 15 18 18 17 14 14 14 14 11 16 13 16 9 20 22 19 18 24 23 12 10 4 10 8 7 3 3 8 11 8 17 9 9 24 27 25 22 21 23 22 17 16 13
15 15 14 15 14 14 15 15 15 16 16 16 16 17 18 18 18 16 15 16 17 17 19 19 19 20 22 22 24 15 8 14 8 8 5 12 16 17 15 12 13 9 8 11 13 12 14 15 17 16 14 11 9 14 9 14 16 18 15 14 13 17 21 19 6 14 8 7 12 6 12 8 6 5 4 14 12 13 31 31 27 25 22 21 19 17 13 18
15 15 14 14 15 15 14 15 15 16 16 17 17 17 17 18 17 15 16 16 16 16 18 19 19 20 21 21 22 13 13 24 12 8 5 14 18 17 11 8 5 5 8 13 15 17 13 15 14 13 13 12 12 21 14 16 11 14 19 9 14 16 18 10 11 14 8 10 11 7 12 8 9 6 16 26 38 37 31 28 27 26 26 21 21 15 20 22
16 15 15 14 15 15 15 15 16 16 16 16 16 16 16 16 15 15 16 16 16 16 17 18 18 20 20 20 16 12 16 21 20 11 9 8 12 14 13 8 7 8 11 17 14 18 14 17 16 14 16 11 10 18 13 13 13 15 21 12 16 8 13 2 8 8 4 12 16 5 4 3 9 10 27 32 29 29 27 27 29 26 23 20 18 21 24 23
17 17 15 14 14 15 15 15 15 15 16 16 16 15 15 15 16 15 15 15 15 16 16 18 19 18 18 14 11 13 22 28 21 15 16 14 14 14 14 15 12 14 16 15 16 16 15 15 18 15 12 15 13 16 15 13 15 16 14 10 12 14 10 7 13 7 11 9 6 3 7 8 10 12 16 27 27 27 31 30 28 26 25 21 22 22 22 21
18 17 17 16 15 14 15 15 15 15 15 15 16 16 15 15 14 14 14 15 15 16 16 17 18 17 18 14 12 10 19 24 18 20 19 17 17 14 14 12 18 14 16 16 14 18 19 16 14 12 17 15 12 18 13 13 11 19 18 14 13 16 7 8 6 7 5 5 6 6 6 13 7 8 11 17 26 26 30 28 27 25 28 26 24 20 18 21
18 17 17 17 16 15 15 15 15 15 14 15 15 15 15 14 14 14 14 16 16 16 16 16 16 16 16 13 12 16 17 8 26 20 21 20 18 15 14 12 17 19 16 13 18 19 17 17 13 13 16 20 12 14 15 12 15 12 9 14 15 17 5 7 9 5 3 9 7 9 12 12 5 6 13 17 20 20 22 26 29 29 29 27 24 22 17 19
21 18 17 17 17 15 14 15 15 15 15 15 15 15 15 15 15 14 15 15 16 17 16 14 15 16 15 17 16 27 15 12 12 7 16 20 21 17 13 12 18 15 17 17 18 16 18 18 16 17 15 12 23 10 17 15 15 9 5 12 11 16 14 9 8 9 6 12 11 12 12 10 10 7 13 17 21 22 23 27 30 31 30 25 22 20 17 17
21 20 18 18 17 15 15 14 15 15 15 15 15 14 14 15 15 15 13 13 14 15 15 14 13 14 14 15 24 35 32 24 22 25 19 9 14 15 14 12 18 17 17 17 16 17 17 18 16 18 21 15 9 19 3 14 10 8 13 13 7 12 14 8 6 9 11 12 15 13 12 8 9 15 9 14 20 20 24 27 31 35 27 24 20 21 18 16
21 21 19 18 17 15 15 15 15 15 15 14 14 14 14 14 15 15 15 16 15 16 15 14 13 14 12 20 24 22 21 16 20 21 20 10 13 18 13 13 14 18 16 16 18 14 17 17 15 19 16 16 18 8 14 12 8 10 6 13 10 4 13 9 13 11 16 12 15 11 7 11 11 9 14 15 15 13 25 33 32 27 24 23 20 20 20 17
22 21 19 18 17 15 15 15 14 14 15 14 14 13 13 14 14 16 16 15 16 14 14 12 13 12 9 24 20 29 34 26 22 25 21 19 11 10 15 11 12 12 16 17 19 17 16 14 16 18 18 11 18 18 16 11 10 12 11 9 9 9 7 12 12 12 21 15 13 9 8 11 17 10 14 14 11 26 35 33 28 25 26 22 21 20 19 17
22 21 21 20 17 15 15 14 14 14 13 14 14 13 13 15 16 16 16 15 17 17 17 15 17 16 13 24 20 11 17 17 21 22 18 15 13 14 10 15 10 12 12 13 16 18 18 15 19 12 14 13 11 9 10 12 9 14 11 4 12 10 11 16 18 13 18 11 14 13 12 10 16 14 15 6 25 37 36 26 26 27 25 23 20 19 18 18
20 19 20 20 18 15 14 14 13 14 13 12 14 15 15 17 19 19 17 16 15 14 13 14 9 18 11 14 16 20 23 22 14 19 18 15 13 16 15 13 16 16 14 15 16 16 14 22 13 15 11 11 6 12 10 10 7 12 13 12 9 14 15 14 19 19 15 13 14 17 19 7 13 17 14 12 36 35 31 26 25 24 24 23 21 19 16 16
21 21 21 21 18 16 14 12 12 13 13 13 14 14 20 15 14 11 13 14 15 17 16 21 16 12 32 29 24 18 19 20 24 22 18 15 16 15 17 18 10 14 14 17 15 20 15 18 18 12 7 12 11 13 15 15 16 13 12 12 13 13 16 13 29 20 17 16 14 15 11 7 16 15 12 13 27 31 27 25 24 23 22 21 22 21 19 18
19 20 20 20 18 17 15 11 13 12 11 11 14 17 20 19 21 15 16 12 10 9 9 21 19 20 8 16 31 19 22 16 16 22 22 20 19 18 17 14 10 14 18 15 17 15 12 8 5 7 16 14 18 16 16 15 16 13 16 17 15 13 18 18 22 20 22 15 14 13 14 8 11 10 24 40 39 33 28 25 22 20 20 21 20 21 20 19
21 18 19 21 19 18 13 11 12 12 8 9 15 17 12 10 8 12 16 16 19 16 12 12 29 22 29 24 13 26 15 17 22 23 19 22 20 19 20 17 15 18 17 20 18 20 14 15 15 18 12 15 15 18 17 22 18 18 17 16 20 20 19 17 20 20 24 15 13 11 10 12 14 23 26 27 28 30 26 23 21 19 19 19 20 21 20 19
21 19 19 21 20 17 13 11 11 10 7 12 14 16 18 19 9 8 14 19 22 22 26 21 26 29 31 28 23 12 25 20 19 23 26 21 18 17 24 21 20 19 18 16 16 16 12 17 17 13 15 16 17 17 16 20 22 19 10 16 19 21 20 17 22 26 26 16 16 12 13 19 23 29 24 24 28 24 27 24 23 21 21 20 20 19 19 16
19 20 18 20 19 17 12 11 11 9 8 12 15 21 23 23 17 16 16 18 21 29 27 29 25 28 33 31 25 25 23 27 25 22 23 22 23 25 17 21 20 20 16 19 15 19 20 20 14 16 18 18 16 18 18 20 19 19 18 10 12 20 21 13 26 29 23 14 14 14 25 25 26 29 26 27 25 22 22 22 21 20 19 19 19 17 16 16
20 19 20 16 18 17 12 11 11 8 13 16 20 21 28 21 24 20 21 20 22 19 29 29 29 26 36 30 30 24 23 27 31 25 29 24 21 25 19 24 19 17 22 20 20 15 18 20 16 17 17 18 19 18 19 21 16 14 12 14 17 16 17 12 28 30 23 23 14 29 29 24 22 24 26 24 24 24 22 25 23 20 21 19 17 14 14 15
21 20 19 16 16 16 10 9 5 10 18 19 21 28 20 21 24 22 20 18 18 19 27 31 27 28 36 29 19 23 24 26 23 27 21 33 25 22 22 23 19 23 24 23 21 18 17 12 19 18 18 20 20 17 18 16 15 13 18 20 20 19 18 11 20 28 23 17 15 30 24 17 15 22 23 19 22 26 23 23 23 21 20 18 16 17 15 14
16 17 17 13 15 12 9 4 13 21 16 18 28 25 24 27 24 22 17 19 24 33 19 24 26 26 33 17 26 28 18 14 15 20 23 26 25 26 20 26 24 23 19 22 22 22 20 18 19 21 20 19 21 19 21 13 12 14 16 20 20 20 13 15 25 25 23 12 25 24 21 10 8 19 22 19 20 21 18 21 19 20 17 17 17 16 13 13
13 11 11 13 14 9 9 8 16 19 17 26 24 20 24 23 22 18 7 14 21 20 20 28 27 34 30 26 19 24 18 27 15 19 21 24 17 25 24 25 27 21 22 22 26 26 18 17 22 24 21 20 22 20 15 15 12 11 19 13 20 19 17 7 33 18 19 25 21 23 27 15 4 16 17 16 16 17 15 17 17 16 17 17 16 14 14 13
12 15 15 15 14 11 8 19 11 8 19 22 22 23 20 22 22 11 11 12 17 26 30 20 31 29 37 18 24 18 21 27 17 18 23 26 26 20 19 15 24 17 24 20 25 30 21 19 20 22 22 23 21 23 21 18 15 19 9 12 14 16 23 12 20 18 16 17 24 21 25 24 13 12 20 20 18 16 13 14 14 14 14 14 15 14 12 12
12 13 13 14 14 13 17 19 19 18 19 17 21 19 24 16 9 8 8 11 22 26 32 32 28 22 29 23 22 28 9 21 29 29 20 27 22 24 24 19 20 19 19 22 20 10 19 21 21 23 20 24 23 18 14 18 25 15 10 15 10 18 19 11 8 9 15 26 23 19 23 20 18 15 22 24 22 15 15 13 13 13 13 14 17 16 14 13
11 11 14 14 12 14 16 17 16 20 19 22 27 17 16 9 5 9 15 13 19 22 27 31 23 24 19 25 29 21 24 23 23 17 19 28 29 18 28 20 18 19 20 20 16 16 26 20 18 19 24 24 16 17 19 16 21 13 17 14 14 15 12 12 9 23 10 23 22 22 23 17 10 21 21 16 18 20 17 15 15 14 14 13 16 16 15 13
13 12 14 11 7 12 17 18 22 24 23 25 26 12 11 11 9 12 15 15 19 17 23 27 28 24 22 33 30 24 26 18 19 21 24 36 28 21 19 13 19 21 24 20 22 19 15 20 14 25 26 19 16 15 21 16 13 9 23 17 14 15 9 7 5 9 9 19 16 17 17 17 12 23 29 29 29 28 21 15 14 15 15 15 13 16 16 14
12 16 15 6 14 13 12 15 18 18 21 25 25 11 9 10 17 16 14 23 15 22 19 25 26 22 29 32 31 29 25 20 22 23 26 28 25 24 16 22 23 18 16 17 21 23 20 25 26 17 15 20 13 20 19 20 15 16 21 19 9 17 5 5 7 9 22 17 12 11 14 20 15 12 12 9 19 25 26 23 20 17 15 15 12 13 15 14
8 10 9 11 16 13 10 11 7 19 20 16 13 6 11 17 15 20 19 9 19 25 22 27 23 30 29 26 20 33 35 25 21 31 29 30 21 29 27 18 24 19 22 18 18 17 21 21 20 14 12 17 24 17 20 22 15 22 11 9 11 13 16 16 13 15 20 23 13 11 11 18 9 5 8 22 24 20 17 22 23 20 17 14 14 14 15 15
11 7 10 14 13 14 16 17 17 20 19 15 8 7 13 17 24 19 25 13 14 22 24 21 27 25 26 27 27 29 24 22 20 23 22 27 20 22 19 22 17 21 16 17 10 18 16 15 25 18 12 22 16 24 15 25 11 18 19 15 11 13 16 16 11 10 5 10 16 18 16 13 8 8 8 18 17 21 20 18 17 18 17 14 14 15 15 14
9 9 12 13 16 18 15 12 13 18 14 9 4 9 9 15 20 15 22 18 11 19 23 28 26 21 27 36 23 28 28 22 22 28 25 25 22 23 26 27 21 23 19 19 28 21 13 23 20 24 23 19 21 18 11 8 8 14 12 14 13 11 21 19 16 15 11 12 15 17 16 13 6 7 13 20 22 21 20 19 17 17 15 12 14 15 15 13
7 10 13 15 16 18 16 14 13 15 9 4 11 15 17 20 13 14 18 18 20 19 22 19 27 25 26 24 20 27 23 26 25 22 28 23 27 26 31 28 26 19 19 14 25 16 23 21 6 22 9 34 25 13 10 13 11 15 13 7 12 19 9 11 13 9 6 5 11 15 12 7 14 8 17 18 21 20 18 19 17 17 16 16 15 13 13 13
9 13 13 17 17 15 15 14 13 10 9 10 12 18 25 25 15 11 10 19 12 22 25 19 24 25 23 23 23 24 25 18 24 23 27 24 22 24 22 24 32 26 22 21 15 15 16 25 15 27 14 23 27 10 19 10 21 19 14 23 21 7 10 12 6 7 9 4 7 12 15 16 12 11 13 20 21 21 19 18 19 17 15 15 13 11 11 8
13 11 15 16 20 14 13 13 12 8 6 9 12 19 19 22 23 20 16 21 18 16 17 14 28 24 25 28 24 27 30 25 22 25 24 25 25 27 30 26 22 25 25 18 14 20 15 13 12 21 23 12 17 13 19 18 15 19 30 14 10 9 8 16 17 13 14 10 11 6 18 17 18 18 11 18 22 18 18 18 18 16 14 13 11 9 9 10
13 12 18 18 17 14 13 15 13 7 10 11 14 13 15 24 23 23 18 21 21 18 17 6 12 20 23 24 25 27 28 27 20 28 16 28 27 26 23 32 25 27 24 23 10 20 10 10 18 19 22 21 22 23 22 22 20 11 20 11 22 19 22 9 12 14 17 18 11 8 15 14 9 16 20 23 25 21 20 20 20 19 17 15 12 11 11 11
9 10 15 16 17 13 14 16 13 12 9 11 13 14 17 25 19 17 18 19 15 17 14 9 9 16 17 22 18 25 30 35 22 23 20 32 24 30 31 23 26 28 24 23 25 12 13 11 11 21 25 20 22 27 26 21 18 17 7 22 14 8 9 10 18 10 23 10 12 12 15 15 16 25 20 19 18 21 23 21 20 18 18 15 13 12 11 10
9 9 13 7 14 13 17 14 13 10 10 13 12 21 16 22 20 15 15 16 11 14 7 10 9 15 22 18 20 24 29 27 21 23 20 22 25 22 31 23 21 33 29 24 20 15 15 12 9 17 20 19 22 29 18 12 13 14 13 11 24 21 7 11 7 15 17 16 17 18 13 11 5 20 29 23 22 23 21 21 19 17 16 14 12 11 9 10
5 6 17 8 15 18 16 14 14 14 14 13 17 21 19 23 18 17 17 13 16 15 20 18 17 14 17 18 22 20 25 26 29 24 25 23 28 22 27 29 21 26 34 26 24 18 14 17 19 12 26 22 14 13 10 15 13 12 11 11 11 18 15 11 16 13 17 16 18 21 13 8 4 9 6 22 23 23 21 24 21 19 17 14 12 9 8 8
9 7 9 12 11 16 19 15 15 10 15 15 18 21 20 15 20 17 17 15 17 24 12 15 18 19 17 16 17 20 21 28 25 17 20 18 22 12 19 21 21 18 33 28 22 11 13 12 12 10 11 17 18 14 13 10 14 17 13 18 13 17 19 16 18 11 12 15 16 13 20 5 5 7 8 22 21 21 24 23 21 18 17 15 13 10 9 11
6 8 12 14 6 12 14 10 8 13 16 19 17 23 24 29 22 16 17 15 20 14 14 10 17 20 14 16 11 13 21 24 24 18 17 19 19 20 21 24 21 21 25 25 20 14 11 13 14 11 6 9 20 10 18 17 16 18 21 10 11 15 17 17 14 9 8 10 16 9 12 7 5 13 11 24 23 24 22 21 22 19 15 16 13 12 11 10
7 7 8 10 8 13 11 11 10 9 16 15 18 23 21 30 26 17 17 16 20 10 11 17 17 15 20 17 16 17 15 22 22 21 22 19 22 21 19 27 25 28 29 15 23 13 30 10 15 10 10 10 6 12 20 20 23 22 13 9 6 7 8 7 11 4 10 6 19 16 16 10 7 7 20 26 25 24 21 18 21 22 15 15 14 12 13 13
10 14 13 15 18 13 14 9 9 8 14 16 17 19 22 24 13 13 16 20 14 11 10 14 17 15 21 14 20 17 18 16 24 25 13 15 15 28 16 25 26 18 24 14 10 15 11 10 15 12 16 19 24 25 22 20 22 12 10 10 9 16 14 8 13 8 15 5 19 18 12 5 9 19 20 22 23 21 19 19 16 18 18 16 13 14 15 14
10 11 14 15 14 12 14 12 7 12 16 13 13 20 23 24 14 14 16 24 21 19 10 20 22 18 15 12 14 18 20 10 11 21 24 14 11 31 16 21 25 20 25 16 20 15 14 12 11 10 15 13 9 8 3 13 18 26 16 19 18 22 18 13 7 8 15 7 11 8 33 23 24 20 23 19 24 26 21 20 21 19 17 16 15 14 13 14
7 7 11 8 11 12 13 12 14 15 13 9 8 13 16 18 19 20 13 17 9 11 13 16 19 14 9 12 9 16 17 18 25 19 21 8 8 17 12 17 21 19 19 19 21 15 6 10 13 8 9 6 3 6 13 9 17 19 17 15 12 19 24 16 13 12 11 17 7 7 30 39 26 23 23 23 21 22 21 20 20 18 18 17 16 17 14 14
6 7 8 5 11 9 10 11 17 13 15 16 16 18 17 15 16 15 18 12 18 14 7 12 12 14 13 11 14 13 12 18 27 12 19 12 10 10 18 13 18 20 19 18 10 15 15 9 5 14 12 9 11 13 14 13 8 21 24 14 10 5 12 20 7 16 16 15 18 21 20 31 24 23 23 23 24 22 20 20 19 18 19 19 18 16 14 13
8 12 12 10 9 5 11 7 11 9 12 11 12 11 15 14 16 18 15 11 13 14 10 8 13 16 24 21 17 10 11 16 17 19 9 12 11 12 11 14 11 15 19 21 13 11 18 9 2 8 10 8 8 12 17 14 18 24 13 14 12 6 7 12 7 9 17 15 26 34 17 21 22 22 21 20 17 18 19 19 19 19 20 19 18 16 16 15
9 8 8 11 7 12 8 7 10 8 10 10 8 11 16 15 10 12 12 8 10 15 11 11 14 20 24 19 13 20 12 12 13 12 10 4 8 5 8 5 6 16 14 18 14 5 16 9 11 4 4 5 11 15 18 19 21 24 22 25 25 23 26 23 25 27 34 30 27 25 24 21 13 16 19 15 13 15 20 20 19 18 19 18 18 18 16 15
7 7 6 9 11 7 5 5 8 10 10 8 11 14 12 11 11 12 14 11 12 15 13 13 12 14 14 16 14 14 17 11 13 10 9 7 10 7 9 6 10 11 20 10 13 7 14 6 5 7 8 5 9 12 10 9 15 22 22 23 22 16 14 5 22 10 25 22 28 26 22 20 18 18 16 14 14 18 20 18 17 17 16 20 20 17 15 14
8 9 9 7 7 8 6 11 14 10 4 8 8 10 12 11 12 15 16 13 17 17 16 14 3 5 11 10 6 7 10 11 7 8 11 10 8 6 9 10 13 13 9 7 9 15 10 14 9 7 12 6 8 8 10 7 8 11 17 18 12 9 10 20 23 18 22 39 32 27 22 21 25 23 23 16 16 14 14 15 17 15 17 20 18 17 15 14
Wind_Speed
11 10 11 11 11 12 11 11 11 11 11 11 10 10 11 11 11 12 13 13 13 13 13 14 14 16 15 16 17 18 16 9 12 8 7 15 8 15 20 10 11 12 7 2 2 3 3 4 6 7 7 5 3 5 6 7 4 3 3 4 7 7 7 7 5 3 4 1 3 1 3 5 4 3 0 5 19 19 18 17 17 21 16 16 14 15 15 14
11 10 10 11 11 11 12 11 11 11 11 11 11 11 11 12 12 12 12 13 13 14 14 14 15 15 16 16 17 18 13 10 11 11 19 7 13 13 5 10 12 11 6 2 6 7 5 7 8 8 6 5 4 4 4 2 4 4 2 4 10 5 9 5 5 1 4 3 5 3 4 4 6 4 0 3 9 17 17 15 18 18 15 15 16 15 15 13
10 11 11 11 11 11 11 11 11 11 11 11 12 11 11 11 12 12 13 12 13 13 14 15 14 15 15 16 17 16 12 9 8 13 16 17 22 14 11 11 11 11 8 3 5 8 8 7 9 8 7 6 4 7 7 3 5 5 3 7 10 5 7 10 7 4 4 4 7 5 0 3 6 5 1 4 10 18 15 13 14 16 13 14 12 13 11 10
11 11 11 11 10 11 11 11 11 11 11 12 12 12 12 13 12 12 13 13 13 13 14 15 15 16 16 17 17 12 8 7 5 7 2 12 23 19 15 14 12 11 5 5 5 6 7 8 7 9 5 7 4 8 6 4 5 2 5 8 6 3 5 7 2 3 5 8 6 4 0 4 6 4 4 9 8 12 13 16 18 16 17 15 14 12 10 8
11 11 11 11 10 10 11 11 11 12 12 12 12 13 13 14 13 13 13 13 14 14 14 15 15 15 17 17 17 8 8 4 3 2 5 6 14 21 18 14 12 8 8 2 4 9 9 10 10 6 6 4 7 4 7 6 7 1 11 13 8 7 11 16 6 4 1 4 4 4 3 2 2 6 5 9 3 6 11 13 17 16 14 15 15 11 10 8
12 12 11 12 11 11 11 11 11 12 12 13 13 13 14 14 14 13 12 13 13 13 14 15 16 15 16 18 13 7 2 3 2 1 1 7 11 15 13 10 11 7 4 3 4 4 7 7 8 6 4 5 4 6 4 7 8 7 7 5 6 8 9 12 1 4 6 3 8 4 5 5 4 2 0 8 6 8 19 19 19 18 15 14 13 11 9 13
12 12 12 11 12 11 11 11 11 12 12 13 13 14 13 14 14 12 12 12 12 13 14 14 15 16 17 16 9 5 4 8 7 2 2 11 15 14 9 6 4 3 4 5 6 5 6 9 7 6 4 6 7 8 9 7 6 7 6 4 9 10 12 2 7 6 3 6 6 3 4 3 5 1 10 17 25 23 17 19 18 18 17 14 13 11 14 15
13 12 12 12 12 12 11 11 11 11 12 12 12 13 12 12 12 11 12 13 12 13 13 13 15 15 16 10 6 4 5 7 12 4 5 7 8 10 11 4 5 3 5 9 8 9 8 9 9 5 6 5 3 8 8 8 8 8 7 6 8 5 8 1 5 4 1 4 8 3 2 2 2 3 17 16 19 20 18 18 18 18 15 14 13 15 16 16
14 14 13 12 12 12 12 11 11 12 12 12 12 12 12 12 12 12 12 12 12 12 12 13 15 14 13 6 3 6 8 13 10 6 9 8 8 9 10 7 6 8 6 7 9 9 7 7 9 7 4 7 7 9 9 7 4 7 6 3 6 8 5 4 9 4 5 4 4 2 4 6 6 4 10 18 18 19 21 19 19 18 16 14 15 15 15 14
14 14 14 13 12 11 12 12 12 11 11 12 11 13 12 12 11 11 11 12 12 12 13 12 13 13 10 5 5 2 10 14 10 12 11 10 10 9 9 8 11 8 7 9 7 10 11 6 8 7 9 8 6 9 8 7 5 10 11 9 8 11 5 5 4 3 3 2 4 2 4 6 4 5 4 12 18 19 20 19 18 18 18 16 13 13 12 14
14 14 13 13 13 12 12 12 12 12 11 11 12 12 12 12 11 11 11 12 13 13 13 12 12 11 7 5 3 6 8 4 13 12 14 11 12 9 9 6 12 9 10 7 10 11 10 11 8 4 4 4 5 7 8 4 7 7 4 8 9 11 4 4 4 1 2 2 3 5 6 7 0 3 7 11 13 14 16 18 20 20 17 14 15 13 11 12
17 15 14 14 14 12 12 12 12 12 12 11 12 12 12 12 12 11 11 11 12 12 12 11 11 6 7 7 7 11 4 5 7 3 6 14 10 10 9 8 11 9 10 9 11 10 11 12 10 6 4 5 9 7 9 8 6 5 3 4 6 11 5 4 2 3 3 4 6 7 4 4 4 2 9 11 14 14 17 18 21 20 16 16 14 12 10 10
17 16 15 14 14 12 12 11 12 12 12 12 12 11 12 12 12 12 10 10 10 12 11 11 9 5 5 5 11 19 19 13 13 17 12 4 8 10 9 9 13 11 11 9 8 10 11 11 10 10 11 5 2 5 0 6 4 4 7 6 3 3 6 4 3 4 6 4 8 7 3 4 4 6 4 8 13 15 17 18 16 12 16 14 13 12 11 9
16 17 16 14 14 12 12 12 12 12 12 11 11 12 12 11 12 12 12 12 11 12 12 10 5 5 4 7 8 10 12 8 12 12 12 6 5 8 8 8 9 11 10 11 11 8 10 10 10 11 6 8 6 5 8 3 4 3 1 6 3 0 3 4 4 6 7 5 10 7 3 6 5 2 9 6 10 8 17 17 13 14 15 13 12 12 12 10
17 16 15 15 14 12 11 12 11 11 12 11 11 10 11 11 11 12 13 12 12 11 10 8 4 3 2 8 10 19 26 16 10 16 12 12 7 4 10 7 8 8 10 12 7 9 9 9 9 8 5 5 8 7 7 5 3 4 2 3 2 3 2 7 7 6 11 3 9 6 2 6 7 4 7 10 6 20 20 15 16 15 14 13 12 12 11 10
15 15 16 16 14 12 11 11 11 11 11 11 11 11 11 12 12 12 13 12 13 14 8 6 5 6 5 9 7 8 5 5 11 15 10 9 7 7 3 8 5 4 5 4 7 6 8 7 9 4 5 8 5 3 5 5 3 3 5 2 4 5 6 5 9 7 11 3 7 5 4 3 4 7 6 4 20 24 18 15 16 17 17 13 12 10 9 11
14 15 13 15 15 12 11 11 10 11 11 10 12 13 12 13 15 15 14 13 7 6 5 4 2 7 1 4 8 9 8 7 8 8 9 9 8 7 7 5 7 8 7 8 7 8 8 9 3 4 4 3 2 3 5 6 3 4 5 4 4 8 6 5 6 10 8 6 4 7 4 2 3 8 6 11 25 20 17 17 15 13 13 14 12 11 9 9
15 14 15 15 15 13 12 9 9 10 10 10 10 10 11 12 12 8 7 7 5 7 6 8 6 3 11 13 8 9 9 10 9 9 9 7 8 8 8 5 6 8 8 9 8 10 6 6 7 5 3 3 2 5 6 7 6 5 6 6 5 5 9 7 9 9 8 9 6 8 3 4 9 5 6 6 19 18 15 14 14 14 14 13 12 12 12 10
14 15 15 16 14 13 12 9 10 10 9 9 10 14 16 15 9 6 6 3 2 1 1 5 6 6 2 7 20 9 8 9 8 11 11 10 7 8 7 7 5 8 7 5 3 8 2 2 1 3 7 5 9 7 7 9 8 7 9 9 8 7 8 8 10 11 13 7 8 8 6 4 5 6 17 25 17 19 15 15 13 12 11 12 12 11 10 11
17 14 13 12 15 14 11 8 9 9 6 4 5 6 1 1 1 2 4 6 7 8 6 5 13 10 17 9 6 12 9 8 8 13 11 11 9 9 10 7 6 6 6 7 6 11 4 7 6 8 7 7 9 10 10 13 12 9 10 9 11 10 11 5 12 10 14 7 7 6 6 5 11 16 13 14 18 17 16 13 12 11 10 11 12 11 11 12
15 16 13 13 15 14 11 9 8 8 5 4 5 5 5 7 3 2 5 8 13 12 14 11 12 18 14 13 10 7 7 9 9 11 15 12 11 9 9 8 8 8 6 9 6 4 5 8 7 6 7 7 9 10 11 12 13 11 3 8 10 12 11 8 11 13 12 7 7 6 9 13 12 14 14 14 18 15 14 15 13 12 12 11 13 12 11 9
15 15 14 12 13 13 10 9 9 7 5 3 6 7 7 10 6 5 6 5 11 18 16 17 13 14 18 18 15 13 10 8 13 12 12 13 11 11 6 9 9 9 7 9 5 6 7 8 7 8 9 9 9 11 12 12 11 10 7 5 6 10 10 7 12 17 13 7 8 9 16 13 15 15 13 15 15 11 9 13 13 12 12 11 11 11 9 10
13 13 16 12 12 12 10 9 9 7 3 5 8 11 11 11 12 11 10 8 9 9 15 15 14 16 21 14 13 11 13 12 12 13 12 12 11 12 9 10 9 7 10 11 9 7 7 8 8 10 9 11 11 11 12 13 9 8 4 3 9 8 6 5 13 18 13 8 7 19 17 10 12 15 14 11 14 12 13 14 14 12 13 12 11 9 8 9
12 14 15 12 9 12 8 6 4 3 6 11 12 15 9 10 10 12 10 4 7 9 11 15 14 14 20 11 7 10 12 11 12 16 12 14 11 12 7 12 10 9 12 13 11 9 9 5 10 10 12 12 12 11 11 9 8 7 7 8 9 12 10 4 9 14 12 3 11 20 12 6 9 11 11 11 12 14 11 13 13 12 11 10 10 11 9 9
8 9 13 9 9 10 5 2 3 8 7 11 15 15 14 15 12 12 7 3 5 9 10 12 9 10 16 7 15 11 10 4 4 10 10 15 12 11 7 8 6 11 10 13 12 10 10 10 13 13 12 11 12 11 12 8 8 4 7 12 13 14 9 4 16 12 6 3 10 16 5 2 5 12 13 11 9 11 9 11 12 11 11 10 11 10 8 8
8 7 6 6 7 6 7 2 8 8 10 12 10 11 12 13 13 10 2 1 6 5 7 8 10 13 8 10 8 11 13 7 5 5 9 11 7 9 5 7 6 11 12 13 12 5 6 9 14 15 13 12 13 11 9 8 7 5 7 8 14 13 9 4 22 10 8 9 8 13 12 3 1 9 9 8 10 11 9 10 10 9 9 10 9 8 8 7
8 8 10 9 10 8 2 6 6 3 9 10 12 13 11 11 12 6 3 2 4 8 11 7 11 1 8 7 10 7 6 6 4 7 8 12 11 7 8 5 8 4 9 4 5 9 8 11 13 15 14 12 10 11 10 8 6 7 5 8 8 7 8 6 9 11 6 8 8 11 9 9 4 5 11 12 12 10 8 8 8 8 8 9 9 9 8 6
9 10 10 9 10 10 4 4 9 8 10 9 12 7 12 8 2 3 1 1 4 8 10 10 7 4 7 11 12 9 4 11 8 12 9 14 9 11 8 9 9 11 8 9 9 4 12 10 12 15 13 11 11 8 8 9 7 4 7 10 4 7 7 3 2 3 7 14 8 5 9 6 3 5 12 15 13 8 9 8 7 7 8 9 11 10 9 8
9 8 8 9 10 9 6 5 8 10 8 9 10 10 6 2 1 2 2 4 2 3 5 10 5 7 5 12 12 11 10 8 8 8 7 15 16 4 10 10 6 11 11 9 7 5 9 12 10 12 12 11 7 8 12 10 9 6 8 7 6 8 3 3 4 7 4 11 10 9 11 5 3 8 10 8 10 10 9 9 8 8 9 8 10 11 10 8
7 5 5 8 1 4 4 7 10 14 13 14 15 6 1 5 2 2 2 4 4 3 9 6 9 10 10 14 11 11 11 5 7 6 9 12 16 9 3 6 7 9 11 10 10 8 5 13 8 9 11 8 8 9 12 11 6 6 12 10 6 8 1 1 1 1 3 7 8 12 12 9 4 10 14 13 11 15 12 8 7 8 8 9 9 10 9 8
7 6 9 4 2 3 4 6 9 7 11 11 14 6 2 4 2 4 3 6 1 6 3 6 9 10 13 17 12 12 11 7 10 9 9 12 13 12 3 7 7 4 5 8 9 12 10 10 10 3 8 9 8 9 9 11 7 7 6 6 5 9 1 1 1 2 3 4 4 8 8 11 4 5 6 2 11 16 16 15 13 12 9 8 7 8 9 9
2 7 7 3 6 6 2 4 5 8 10 10 8 1 3 3 3 6 5 5 4 5 8 10 9 10 13 13 8 13 11 10 7 11 10 12 9 11 10 6 7 6 8 8 7 8 10 9 9 7 5 12 11 7 8 13 7 10 5 2 6 2 2 2 1 2 4 7 4 5 8 5 2 2 4 11 16 13 9 13 14 13 11 9 9 8 9 8
6 5 7 7 8 6 7 8 9 10 12 10 4 1 2 3 7 8 8 6 3 10 4 8 11 12 12 14 12 14 12 9 9 8 11 12 8 11 10 9 6 6 3 5 3 6 6 4 11 10 5 7 5 10 5 11 5 11 9 5 3 3 4 4 2 2 1 2 9 9 5 4 1 2 3 9 10 12 12 11 11 12 11 9 9 10 9 8
6 7 4 6 7 8 7 7 4 11 9 6 2 4 1 4 5 6 9 7 6 3 9 10 12 10 15 12 10 13 11 11 8 7 13 10 10 9 10 15 11 11 4 8 8 7 5 9 8 11 4 6 7 8 6 3 4 5 3 6 6 3 3 4 3 3 4 4 6 11 7 3 2 1 4 11 13 13 12 11 10 10 9 7 8 9 10 9
6 5 5 6 7 8 8 8 6 10 5 1 5 1 4 6 2 1 5 6 3 10 9 10 12 12 12 9 8 12 8 6 12 8 12 11 10 9 13 12 15 7 7 5 7 2 13 5 1 10 4 11 11 5 5 6 2 3 2 2 4 8 3 3 4 3 0 1 2 7 2 3 6 4 10 10 12 12 12 12 11 10 10 10 9 8 8 8
5 4 4 4 6 6 6 6 5 7 3 2 2 5 8 6 4 1 1 8 3 8 13 11 12 10 8 9 8 11 12 3 11 6 9 9 9 8 11 7 11 14 7 6 3 3 6 7 5 8 9 14 18 5 4 4 5 5 5 7 8 4 2 2 1 3 5 2 3 1 6 5 5 5 8 13 13 12 11 12 12 11 10 10 8 6 7 5
4 3 4 6 9 7 6 6 6 3 2 2 4 5 4 6 11 11 5 10 8 9 9 7 5 8 9 9 8 13 12 11 8 6 7 11 7 12 13 13 12 12 13 5 3 4 6 5 7 9 14 2 5 2 4 5 3 2 9 6 1 4 2 5 4 1 3 3 2 3 9 9 8 5 3 12 14 12 11 11 11 10 9 8 7 6 5 5
5 4 7 10 9 7 6 3 5 3 2 3 4 7 5 8 9 9 9 10 7 10 6 2 3 9 7 9 9 11 12 11 7 8 5 14 3 14 11 10 14 13 13 12 3 6 3 2 7 9 12 7 8 7 9 10 8 6 8 6 7 5 10 2 3 4 4 4 3 3 9 6 4 7 9 13 15 14 13 12 11 11 10 8 7 6 6 6
3 3 4 7 9 7 5 7 7 1 2 2 2 4 5 10 9 9 10 7 5 8 2 0 2 4 2 9 5 10 14 11 8 8 6 9 5 13 15 10 13 19 14 12 9 3 4 3 2 7 13 8 6 9 10 9 10 7 2 5 7 3 2 3 4 4 8 3 5 3 7 4 5 8 13 12 11 13 13 11 11 11 10 9 8 7 7 5
3 2 4 2 4 5 5 4 2 2 1 3 2 6 6 11 10 10 7 9 4 2 0 2 5 4 9 8 7 8 12 14 8 5 6 7 6 11 15 13 8 17 18 14 7 6 3 3 1 4 12 10 8 7 8 6 7 4 3 2 4 3 1 4 0 4 6 4 6 6 4 3 2 10 17 15 14 15 14 12 11 10 10 9 8 7 6 5
2 0 5 3 5 7 6 4 3 4 3 3 7 9 11 8 8 10 10 10 6 5 6 6 4 4 6 6 7 10 6 12 10 5 7 9 11 4 12 14 10 14 18 14 10 4 2 4 8 5 8 8 3 6 5 8 5 3 4 5 7 9 4 5 6 2 2 4 4 6 3 1 1 4 1 13 13 13 13 15 12 12 11 9 8 6 5 4
2 2 1 5 3 7 7 5 3 3 2 5 6 5 7 8 10 10 8 5 8 7 6 5 7 7 8 6 7 4 7 10 11 7 6 8 11 4 8 13 13 10 12 8 9 5 5 3 3 4 3 5 8 8 6 4 5 7 4 5 5 5 5 3 5 3 2 1 8 5 8 2 2 3 2 13 12 12 14 14 13 11 11 10 8 7 6 6
1 3 3 8 4 6 4 3 3 3 4 6 9 13 12 12 12 7 8 5 7 7 4 3 6 6 6 3 6 3 8 5 12 7 7 12 8 11 10 14 14 13 12 6 7 4 7 2 5 3 2 4 12 6 11 7 4 6 9 4 4 6 8 7 4 3 2 2 7 3 4 0 2 5 6 14 13 14 12 13 14 11 9 10 9 8 8 7
2 2 4 4 1 6 4 2 2 4 5 8 9 12 11 11 13 9 7 8 4 4 2 6 9 7 6 11 8 7 4 4 9 9 5 8 6 14 13 19 15 9 12 5 6 4 5 1 7 3 1 1 1 0 4 7 7 5 2 2 3 3 5 2 2 1 2 2 12 7 6 3 0 4 11 16 16 15 14 12 13 14 9 9 9 8 8 8
1 1 3 4 3 2 4 2 2 3 5 7 7 10 9 10 7 6 7 10 8 4 4 4 7 9 7 6 8 7 8 7 3 13 6 8 4 15 12 18 18 6 11 7 8 5 3 3 5 4 6 8 8 8 6 6 9 1 2 5 5 5 5 2 4 1 5 1 11 7 4 2 5 11 12 14 15 14 12 12 9 11 11 10 8 9 9 8
2 2 2 3 4 4 4 6 2 3 5 6 6 8 10 11 7 6 8 11 8 10 5 7 12 12 8 5 4 4 9 7 1 5 10 5 3 9 8 16 18 7 16 12 11 5 2 2 4 4 7 6 4 2 1 6 4 10 6 7 5 5 4 3 3 4 5 4 4 3 18 15 15 13 15 13 15 17 13 13 13 11 10 10 9 9 8 8
2 1 3 3 2 4 5 4 5 5 3 3 2 3 8 11 9 8 7 5 1 3 2 7 9 6 3 7 4 5 4 7 13 4 11 3 1 5 7 7 12 13 16 9 15 5 2 2 5 5 4 3 2 4 6 2 8 7 5 6 7 6 7 7 6 3 6 9 3 0 20 22 15 15 15 15 14 15 13 13 12 11 11 10 10 10 11 9
1 1 2 1 2 3 3 5 7 6 8 7 6 4 8 8 6 3 9 7 8 5 2 6 6 6 8 5 7 4 6 7 7 4 12 2 1 4 3 4 5 9 13 6 7 5 5 2 2 5 4 6 6 8 8 8 3 7 14 8 7 4 8 12 3 10 10 6 8 11 14 19 14 15 15 15 15 14 13 13 12 12 12 12 12 11 9 9
2 3 3 3 0 2 3 1 3 4 7 7 3 3 6 6 7 6 5 4 6 5 4 2 6 9 14 13 7 4 4 4 5 10 2 5 4 3 0 1 5 10 11 7 2 1 5 2 0 3 3 4 5 8 9 6 10 16 8 8 8 1 5 9 5 1 6 7 16 18 10 13 12 13 13 13 11 12 11 12 12 12 13 12 12 10 11 10
2 3 2 4 2 5 3 1 1 3 5 4 2 4 5 5 5 5 5 2 2 5 6 4 8 10 7 11 7 5 6 2 3 2 6 3 1 2 0 1 2 4 5 7 3 1 6 1 5 1 2 2 8 10 12 10 8 8 12 15 13 13 16 14 15 17 22 18 18 17 15 12 4 9 12 10 8 9 12 13 13 12 12 12 12 12 11 10
2 2 1 3 4 3 2 1 2 3 2 1 2 5 5 5 5 7 7 6 3 5 7 7 6 8 6 8 4 4 6 3 2 6 6 2 3 2 2 2 5 3 6 2 4 1 6 2 3 3 3 1 5 7 6 6 9 12 13 13 12 9 9 3 9 3 13 13 18 17 13 7 7 9 9 9 9 12 13 12 11 10 10 13 13 11 10 9
2 3 3 2 2 3 2 2 5 5 1 1 2 2 3 5 7 9 5 5 9 10 8 9 1 0 3 4 2 3 4 8 5 5 4 1 3 4 6 1 6 3 1 1 4 5 2 5 3 3 6 2 2 6 5 3 2 5 5 4 5 6 7 11 12 10 12 25 17 13 12 10 14 12 13 10 10 10 9 10 10 9 11 13 12 11 10 9
Wind_Direction
316 319 317 316 316 315 316 314 314 314 316 315 316 314 311 312 314 316 314 316 318 317 317 321 319 319 322 326 327 326 327 321 311 302 251 236 226 230 256 245 178 190 154 197 236 269 221 203 229 243 252 252 233 245 255 269 244 201 216 212 257 241 261 256 272 297 301 92 160 194 165 113 179 126 255 102 95 92 83 75 70 67 70 90 101 102 105 108
308 310 311 311 311 315 316 314 312 315 312 313 314 311 311 311 313 312 312 314 317 316 317 318 319 321 321 327 326 326 328 299 288 276 244 228 221 226 180 170 167 163 160 208 210 212 226 207 220 221 230 240 216 240 196 239 225 196 223 193 240 224 249 278 265 272 54 304 265 141 179 164 185 125 213 92 108 98 87 87 83 79 76 81 91 99 104 109
303 302 306 307 308 309 311 311 312 310 314 315 313 314 314 311 311 312 311 310 312 317 318 319 319 319 326 324 324 329 322 302 271 249 261 217 235 221 176 170 166 161 173 188 219 228 218 215 209 213 215 246 221 237 206 233 211 223 192 229 240 248 269 282 302 24 15 350 15 351 351 292 181 114 212 124 112 105 109 106 96 105 108 105 103 104 111 123
297 297 296 304 306 304 305 308 310 310 313 313 312 312 307 303 307 310 310 310 311 314 317 319 321 321 324 325 324 324 309 272 269 247 204 207 203 201 186 171 169 174 184 249 267 266 279 276 247 208 211 216 248 236 226 214 206 188 221 235 239 235 262 283 278 44 346 6 0 335 4 11 143 120 145 134 123 120 132 133 132 130 126 123 121 120 122 124
288 293 291 294 301 300 298 302 305 308 309 309 310 311 311 306 299 303 309 312 312 310 313 317 319 321 326 321 321 322 299 12 273 31 292 257 203 183 180 173 166 170 177 239 303 279 274 281 281 235 221 228 235 248 236 220 198 209 217 235 259 292 295 283 267 112 11 321 346 333 21 12 274 142 132 139 128 159 130 117 113 119 120 125 124 124 130 120
282 286 288 286 291 295 295 297 304 307 307 308 311 309 307 306 299 295 303 308 311 315 316 319 321 326 324 324 310 291 277 147 7 83 350 84 136 157 160 161 169 164 157 212 233 275 278 268 256 251 220 233 231 232 239 227 172 239 263 255 238 243 246 270 298 41 39 3 327 8 329 319 34 332 136 154 134 106 116 120 121 120 121 116 118 125 112 90
271 274 280 282 283 289 291 293 298 304 307 310 310 309 308 306 302 297 300 304 309 314 314 319 322 325 329 321 287 235 244 283 322 137 65 116 129 136 137 144 162 170 174 205 227 244 245 247 247 239 249 223 239 255 261 230 194 207 249 235 245 235 244 358 18 52 43 338 296 356 315 358 113 291 51 75 97 107 115 116 114 115 117 121 118 110 89 85
278 270 268 276 275 281 289 290 294 301 306 307 308 310 306 302 303 303 303 306 308 312 313 316 322 325 333 336 329 190 211 259 238 140 164 122 120 129 129 131 151 156 198 211 205 222 244 242 235 235 251 219 201 236 258 259 217 232 238 260 280 276 242 217 84 34 29 264 281 326 280 268 166 107 102 109 107 117 119 112 112 118 116 116 108 92 93 91
269 266 269 269 273 272 280 289 294 296 302 306 308 305 304 302 304 304 304 303 309 311 316 316 321 324 326 295 288 330 240 228 242 158 158 149 135 136 142 147 171 177 201 213 224 232 221 242 241 225 218 240 254 247 243 250 255 220 246 242 258 268 258 182 141 139 240 256 226 349 275 280 232 125 111 122 124 124 121 125 125 117 117 105 91 98 96 95
265 262 259 261 266 272 274 285 292 295 297 302 302 301 301 300 300 304 302 303 304 310 313 315 314 326 316 293 268 240 260 213 215 176 179 155 142 147 178 157 163 180 189 212 222 231 230 228 233 223 254 272 256 246 258 232 233 192 217 231 249 258 282 210 174 117 222 248 116 266 275 264 302 135 146 129 129 129 129 127 118 110 95 87 88 90 92 96
266 261 259 257 260 266 271 280 291 293 295 296 298 296 297 294 293 293 302 301 304 309 308 308 316 327 316 305 265 222 263 207 154 175 176 164 149 163 193 183 169 175 198 207 220 225 238 249 240 249 241 241 280 271 252 230 244 235 215 225 241 265 285 311 88 160 87 247 185 192 252 265 4 34 163 132 128 125 122 118 110 98 95 94 94 90 94 94
275 259 254 256 257 260 270 274 282 289 293 295 293 295 295 296 295 297 295 300 302 304 308 316 323 309 285 271 237 229 253 31 11 336 207 171 168 181 193 188 172 184 188 208 219 231 237 244 248 244 229 157 250 280 277 277 266 224 230 285 225 245 260 219 201 192 138 245 201 188 245 275 176 170 178 141 125 125 119 120 99 100 100 100 99 95 85 91
272 268 254 252 253 256 263 274 276 287 291 289 290 293 291 294 297 295 294 291 294 301 306 310 314 298 296 298 238 250 273 305 322 313 310 213 175 191 193 195 176 186 193 215 224 225 238 241 249 253 251 247 225 195 261 300 275 250 166 200 292 250 247 231 173 201 178 215 207 147 231 257 199 214 203 148 132 132 125 104 100 98 103 103 100 96 95 93
267 276 260 250 248 252 263 268 275 279 286 287 288 289 290 290 291 291 289 289 299 298 296 301 309 297 288 251 277 265 282 304 307 299 293 291 210 203 207 200 194 190 192 208 233 237 231 237 244 252 267 253 255 331 289 252 290 257 142 149 203 81 258 238 189 190 220 181 205 133 153 222 202 274 145 134 141 129 89 99 102 100 100 101 99 99 99 94
262 264 269 252 246 247 253 267 276 277 278 285 286 288 288 283 278 279 282 282 281 292 301 308 251 265 224 264 248 257 258 264 263 267 276 287 269 254 198 196 216 207 195 203 224 237 246 240 235 243 250 259 277 290 303 280 206 228 223 212 190 187 259 230 185 189 212 184 200 144 152 232 202 186 162 155 143 93 104 101 104 102 104 104 104 103 102 104
265 253 255 255 245 244 250 261 273 281 280 281 283 282 276 276 276 277 278 278 285 288 287 266 238 226 309 290 254 294 243 168 241 246 253 256 261 251 221 186 199 228 250 236 227 240 248 241 223 208 256 279 288 296 290 307 300 203 170 194 191 189 245 227 187 206 216 199 190 169 190 223 227 169 165 113 85 107 111 110 107 107 105 101 99 94 95 97
260 260 256 259 245 242 245 253 265 275 279 280 281 278 278 272 270 274 279 278 276 258 235 247 248 175 194 237 336 288 258 217 214 217 227 247 250 242 248 194 187 205 212 239 224 236 242 240 162 239 229 214 177 222 245 274 283 249 173 208 201 192 217 245 191 198 218 205 188 192 212 239 175 180 136 114 114 107 109 115 113 108 109 107 104 99 85 85
270 256 255 257 243 237 241 249 261 266 273 278 280 283 282 282 286 301 284 257 249 252 245 237 273 298 261 257 276 227 220 226 199 200 206 225 239 253 254 220 173 206 199 220 223 224 218 228 163 201 177 222 251 220 177 219 202 206 163 205 261 245 210 200 170 202 203 203 203 191 163 348 149 142 122 93 104 104 112 116 109 108 108 106 105 100 93 79
261 251 237 241 243 237 237 241 254 263 273 286 293 282 271 275 268 245 268 207 185 114 16 205 164 167 228 205 216 228 222 218 177 184 196 206 225 245 254 259 194 193 191 200 189 222 166 281 89 127 200 187 225 215 201 225 220 202 163 186 218 231 236 218 184 181 189 191 207 172 160 197 119 96 69 98 107 107 106 103 99 93 95 96 90 89 88 85
270 253 243 235 241 236 235 237 245 254 271 310 294 283 222 282 196 247 199 228 238 225 258 172 205 267 316 303 142 218 249 235 193 185 192 196 199 214 241 239 197 207 181 191 168 208 128 198 187 202 193 202 217 231 238 237 238 223 182 188 212 224 247 226 174 179 184 159 189 166 139 129 54 71 86 78 98 102 104 98 94 94 88 84 88 86 87 82
265 261 246 236 235 233 235 237 240 242 238 255 289 293 236 198 180 104 160 221 225 245 265 272 203 224 245 291 318 339 238 245 224 173 204 179 199 183 214 218 190 201 199 190 184 197 154 191 220 199 217 210 215 230 241 253 251 255 263 202 209 215 235 223 175 177 184 146 176 167 114 75 87 76 85 86 81 91 95 97 91 92 92 90 91 89 81 86
261 254 242 233 244 249 233 238 242 241 223 241 255 248 261 261 299 291 297 267 215 226 241 253 255 257 262 261 278 283 274 265 207 187 193 177 187 187 193 212 182 195 188 194 181 177 210 205 204 210 208 227 230 222 239 239 250 259 249 278 268 231 229 236 172 175 184 132 174 134 95 85 85 95 77 87 90 83 87 92 97 92 88 88 86 85 85 77
264 255 245 223 223 242 241 239 242 244 228 228 241 249 254 260 291 302 289 280 291 225 220 234 251 255 263 267 275 285 291 269 211 188 181 187 167 203 166 199 180 190 185 202 192 168 199 225 204 204 212 219 233 232 226 243 245 241 266 244 247 252 209 238 170 170 174 162 149 106 101 103 96 83 90 78 93 92 81 80 80 77 81 80 82 83 83 76
262 261 239 210 203 232 240 252 271 261 231 240 244 237 256 278 288 293 293 272 296 259 210 213 220 234 250 236 248 243 232 244 197 178 171 182 178 190 204 190 179 199 190 202 209 186 196 179 202 212 214 213 225 229 230 226 240 246 226 234 253 257 234 166 165 158 170 111 120 108 96 96 110 108 98 98 96 96 97 92 88 87 84 84 79 71 71 78
245 249 242 196 199 218 227 352 279 233 229 236 245 247 250 260 268 270 284 286 248 251 239 248 201 225 242 236 267 275 255 276 219 166 170 180 165 175 217 173 196 201 195 196 214 223 200 197 184 215 222 217 221 230 232 200 232 255 237 229 240 257 270 175 156 149 159 80 141 119 77 92 123 113 121 131 118 108 112 104 101 99 99 88 81 79 75 73
246 212 208 198 217 194 105 192 242 225 217 228 233 236 234 240 248 254 281 265 272 266 157 219 143 237 191 227 219 235 263 246 257 182 162 183 173 187 174 208 194 183 206 186 206 220 217 194 184 199 213 216 218 229 230 206 215 224 247 231 241 253 279 327 166 137 163 149 175 138 131 194 356 130 133 120 109 111 117 105 107 104 98 97 94 96 90 89
244 211 206 202 210 147 131 238 264 244 211 249 231 236 240 227 228 234 83 228 287 200 186 154 156 264 162 184 202 215 209 218 226 261 188 168 196 179 199 217 172 234 193 197 176 211 218 212 191 192 206 215 214 220 228 211 202 244 253 247 248 253 270 294 175 149 171 132 161 143 136 142 169 188 139 130 117 119 104 100 103 111 110 102 103 103 100 94
214 197 205 204 211 172 238 323 338 307 263 288 331 244 220 224 77 70 149 251 274 135 173 165 216 140 185 163 204 210 256 132 197 221 232 159 205 170 221 202 184 205 195 198 210 147 198 219 199 187 198 212 218 207 222 216 210 221 249 260 253 242 246 272 230 200 136 131 176 153 109 92 189 175 150 136 126 133 131 123 125 120 113 113 111 107 101 96
184 175 201 222 219 220 246 282 301 276 269 301 289 295 145 130 93 125 242 259 139 139 93 127 145 141 186 160 201 214 243 167 192 174 196 164 198 177 203 227 197 195 232 216 203 200 189 225 199 196 186 210 211 199 221 215 221 214 262 261 263 259 235 199 195 224 147 129 181 190 157 127 173 156 155 152 131 148 146 142 134 132 127 122 115 112 107 98
169 175 240 225 212 258 258 247 248 262 293 294 291 314 359 81 110 234 174 272 189 145 188 131 178 183 182 168 189 211 224 196 212 160 183 171 187 218 242 218 234 193 216 230 235 225 202 202 221 202 193 194 197 216 214 222 219 146 226 254 277 265 234 254 109 149 73 181 203 195 182 157 138 193 165 168 190 160 145 139 136 126 121 119 121 121 118 109
166 172 232 203 206 233 237 251 254 271 270 274 277 262 41 87 176 202 218 235 265 112 113 145 172 159 177 175 176 201 220 219 212 178 169 161 183 202 205 209 230 271 213 223 226 232 232 187 215 198 184 183 190 211 212 226 211 172 213 219 276 317 313 47 355 64 182 272 234 171 176 160 151 196 210 59 103 136 141 145 143 135 135 136 132 124 119 113
190 214 227 224 253 277 254 268 324 309 290 293 308 124 117 126 317 213 223 335 254 157 154 174 181 171 178 179 179 183 198 216 229 186 174 168 172 190 203 204 172 175 220 192 220 233 242 203 197 228 206 184 184 217 200 220 207 198 208 172 154 261 137 282 143 194 215 210 222 161 125 139 53 302 145 133 130 138 129 133 138 137 134 131 124 117 111 106
316 297 265 255 259 260 256 260 284 291 292 289 317 357 111 189 193 245 264 300 144 158 161 184 164 174 170 170 197 185 206 210 217 205 166 165 177 199 212 221 183 168 161 186 184 198 255 265 195 206 193 202 177 196 176 214 198 183 194 176 152 163 195 210 239 159 301 215 164 187 101 89 215 15 98 115 116 119 121 122 125 127 128 125 118 106 100 98
282 286 271 245 243 251 263 269 270 285 304 337 48 62 309 203 221 213 253 268 304 261 143 181 157 177 172 184 188 175 193 226 216 202 170 164 182 180 211 223 222 193 233 165 211 181 191 230 243 179 216 171 219 204 169 159 151 193 186 159 163 168 164 186 158 167 193 232 179 190 99 219 104 194 87 109 113 114 115 115 110 113 117 115 103 95 95 93
314 288 271 281 267 245 247 259 263 267 279 1 66 181 199 218 305 220 219 286 298 286 184 174 161 177 178 192 176 188 197 192 234 190 170 163 191 185 196 209 222 219 192 144 209 177 210 234 203 184 192 167 225 188 167 154 162 219 180 130 202 231 140 145 194 132 253 136 163 21 106 24 84 100 99 104 110 109 117 116 112 98 84 83 82 80 82 87
316 256 229 248 250 248 234 241 254 253 281 121 171 181 218 202 181 168 310 306 324 341 323 305 174 180 164 189 181 185 202 222 218 216 173 183 189 197 187 210 215 215 193 192 175 201 175 220 218 195 232 190 196 169 206 127 177 214 205 210 215 197 138 167 174 136 90 72 39 207 76 85 95 29 110 117 108 110 111 107 101 93 83 79 83 82 93 94
251 272 240 236 245 245 216 218 232 232 268 248 232 218 244 272 269 317 348 336 339 337 343 2 189 173 159 190 177 189 182 216 229 203 169 175 197 203 185 209 217 213 230 155 182 195 134 225 225 187 199 211 165 154 252 225 184 156 198 230 254 241 135 126 184 184 138 158 160 182 147 150 157 149 173 125 125 129 119 107 100 95 91 87 86 97 113 130
319 293 278 262 245 215 219 176 266 216 235 261 245 269 289 296 295 301 288 311 341 355 339 14 302 199 162 177 185 186 171 194 206 203 170 173 257 184 198 198 206 229 220 217 152 212 163 167 218 180 177 184 164 176 246 257 234 174 207 159 190 182 239 258 101 165 158 174 120 104 146 154 177 139 158 153 146 142 128 120 118 120 123 126 133 141 147 145
279 293 289 239 217 219 169 184 214 198 230 220 254 258 234 244 268 272 285 289 357 327 291 188 11 292 157 182 181 191 172 200 195 207 156 179 219 178 202 182 197 217 229 220 226 208 149 137 295 175 178 176 178 166 213 221 257 241 358 251 180 120 163 110 196 169 131 197 99 147 164 207 191 156 164 158 155 134 128 135 133 133 136 142 142 148 150 152
291 302 260 287 183 156 163 203 186 111 250 231 225 236 283 294 291 316 338 335 321 5 270 332 319 299 301 197 194 183 180 200 203 209 201 158 224 174 195 180 197 199 225 228 228 152 188 125 226 224 173 153 218 182 199 176 203 250 230 261 211 194 179 111 270 175 161 161 150 138 191 227 280 166 170 166 155 142 141 135 132 131 135 140 138 137 141 142
3 243 280 254 153 156 174 121 215 196 217 273 270 279 282 280 302 293 301 310 308 230 245 279 296 285 309 316 223 180 175 194 208 217 190 159 187 164 207 183 191 190 214 229 240 177 106 133 183 299 171 176 199 154 182 173 180 196 161 198 194 170 168 210 277 263 157 133 157 127 198 182 273 24 165 150 139 138 137 130 132 140 141 136 128 129 136 130
283 269 285 357 173 179 149 173 235 202 247 230 237 252 269 275 263 272 297 309 290 277 227 242 270 263 279 253 265 239 177 193 205 219 176 171 200 199 192 196 183 189 198 200 216 193 143 169 113 229 221 194 190 167 191 173 188 232 186 231 182 169 150 134 194 267 223 187 98 131 118 141 310 336 290 137 139 132 132 133 131 130 128 128 128 124 113 110
309 257 279 264 256 145 179 253 203 209 230 251 269 269 271 275 273 283 305 306 310 302 276 226 268 312 254 228 286 301 213 188 203 220 169 171 204 209 174 204 180 199 192 203 205 235 124 98 145 227 262 189 184 181 178 187 230 254 261 269 163 195 192 173 150 190 158 152 87 45 79 169 343 344 113 118 114 118 122 127 124 124 130 128 128 128 119 99
232 256 306 276 33 171 225 207 230 236 247 258 261 273 275 272 281 303 296 298 287 5 360 300 298 236 308 305 281 291 293 200 211 225 189 175 195 204 177 199 188 207 184 184 194 218 182 248 117 128 172 43 144 86 190 189 196 217 240 260 230 170 161 157 172 328 256 254 143 124 158 159 239 72 108 115 118 121 126 128 132 129 131 131 130 122 110 99
211 237 281 308 332 269 232 240 315 324 284 272 268 281 293 283 239 261 287 282 298 318 18 312 278 301 282 279 302 312 303 268 188 229 244 176 203 189 181 190 193 197 193 171 176 172 122 190 108 141 169 172 189 192 213 202 203 263 234 260 244 222 185 126 239 245 215 13 114 110 83 53 89 117 111 117 121 120 126 130 126 126 131 131 120 110 104 102
318 99 143 207 227 205 265 287 274 234 286 299 305 282 269 267 272 279 264 274 245 256 172 261 265 271 286 293 299 310 312 288 251 194 226 169 172 187 180 186 189 192 184 184 152 135 122 150 118 142 155 180 200 210 219 151 156 204 216 225 241 243 225 161 140 109 193 129 62 176 141 140 136 141 135 135 132 131 137 136 134 133 131 125 123 116 110 109
308 228 158 161 177 232 264 204 226 219 237 239 258 303 322 325 327 315 299 278 209 247 273 229 273 289 304 335 298 295 298 314 348 279 199 170 184 156 174 191 186 210 173 167 148 112 77 95 184 133 151 159 134 35 336 258 190 191 201 223 244 220 227 231 187 207 157 89 359 264 147 136 153 147 143 141 137 136 142 143 138 135 130 128 120 116 115 112
307 322 50 247 115 212 200 261 229 238 247 263 262 297 292 305 324 312 316 316 352 332 111 303 316 301 303 312 303 310 346 352 359 286 161 184 31 129 191 244 211 173 127 140 135 113 131 115 250 142 199 100 77 37 15 9 310 205 196 205 219 191 202 204 146 163 147 161 173 171 159 133 150 146 143 141 143 143 144 138 132 130 126 124 125 125 120 112
265 283 264 331 239 320 186 291 336 275 268 248 302 305 293 287 283 297 282 332 344 322 325 319 315 352 5 336 18 356 2 40 341 328 12 139 210 126 185 220 286 142 128 134 146 118 91 163 128 153 200 133 83 60 34 29 42 37 24 14 2 5 115 107 40 16 140 133 135 148 135 120 133 137 133 134 134 132 127 125 123 129 133 134 131 119 113 109
338 355 322 326 217 249 274 354 264 287 259 256 261 250 248 258 285 292 286 22 341 304 316 287 314 10 326 344 23 52 354 150 126 286 308 57 151 63 144 126 197 174 119 146 113 67 102 279 168 106 67 73 83 70 65 65 78 62 31 28 34 65 66 82 100 92 84 87 106 109 113 110 95 119 122 120 118 120 124 128 136 142 143 131 119 115 111 110
273 212 264 313 321 299 292 280 311 291 285 260 189 280 280 307 316 335 314 304 263 277 301 301 330 7 347 325 16 10 325 38 34 265 297 78 144 39 113 332 344 148 168 137 100 57 104 315 28 80 82 357 70 80 89 93 87 68 34 18 15 21 70 358 105 160 112 129 124 118 120 138 146 133 119 117 125 132 134 136 138 142 126 117 117 117 115 114
273 256 274 279 273 293 292 271 242 236 270 64 278 301 287 316 318 303 317 276 253 249 257 284 321 98 303 326 27 303 325 350 322 302 302 65 112 66 67 262 350 330 141 65 91 109 99 119 70 59 97 14 25 98 90 62 27 24 5 358 348 51 82 70 51 47 125 133 128 151 182 149 145 142 134 136 137 137 132 139 129 109 120 122 120 117 117 116